This demonstration page uses our WeatherBlox Daily Observations layout. Learn more.

Left ArrowRight Arrow

Hourly Observations for May 15, 2018

Temp ( °F °C ) Dew Point ( °F °C ) Humidity (%) Winds ( mph kmh ) Pressure ( in mb ) Visibility ( mi km ) Precip ( " mm )
12:53 am 00:53 Clear 67 19.4 52 11.1 59 59 SW 7 11 29.89 1012 10 16 0.00 0.00
1:53 am 01:53 Clear 64 17.8 52 11.1 65 65 S 5 7 29.89 1012 10 16 0.00 0.00
2:53 am 02:53 Clear 61 16.1 52 11.1 72 72 SE 5 7 29.90 1013 10 16 0.00 0.00
3:53 am 03:53 Clear 61 16.1 51 10.6 70 70 S 9 15 29.91 1013 10 16 0.00 0.00
4:53 am 04:53 Clear 60 15.6 50 10 70 70 SSW 7 11 29.91 1013 10 16 0.00 0.00
5:53 am 05:53 Sunny 58 14.4 49 9.4 72 72 S 3 6 29.93 1014 10 16 0.00 0.00
6:53 am 06:53 Sunny 59 15 49 9.4 69 69 SE 5 7 29.94 1014 10 16 0.00 0.00
7:53 am 07:53 Sunny 62 16.7 49 9.4 62 62 VRB 3 6 29.95 1014 10 16 0.00 0.00
8:53 am 08:53 Sunny 63 17.2 49 9.4 60 60 SSW 6 9 29.96 1014 10 16 0.00 0.00
9:53 am 09:53 Sunny 67 19.4 49 9.4 53 53 S 8 13 29.95 1014 10 16 0.00 0.00
10:53 am 10:53 Sunny 69 20.6 50 10 51 51 SSW 6 9 29.94 1014 10 16 0.00 0.00
11:53 am 11:53 Sunny 72 22.2 50 10 46 46 W 3 6 29.93 1013 10 16 0.00 0.00
12:53 pm 12:53 Sunny 75 23.9 52 11.1 45 45 S 6 9 29.91 1013 10 16 0.00 0.00
1:53 pm 13:53 Sunny 77 25 50 10 39 39 SSE 9 15 29.89 1012 10 16 0.00 0.00
2:53 pm 14:53 Sunny 78 25.6 50 10 37 37 VRB 6 9 29.88 1012 10 16 0.00 0.00
3:53 pm 15:53 Sunny 80 26.7 52 11.1 38 38 SE 12 19 29.87 1011 10 16 0.00 0.00
4:53 pm 16:53 Mostly Cloudy 80 26.7 53 11.7 39 39 S 13 20 29.87 1011 10 16 0.00 0.00
5:53 pm 17:53 Cloudy 76 24.4 53 11.7 45 45 SE 9 15 29.88 1012 10 16 0.00 0.00
6:53 pm 18:53 Cloudy 75 23.9 55 12.8 50 50 SE 7 11 29.88 1012 10 16 0.00 0.00
7:53 pm 19:53 Mostly Cloudy 70 21.1 57 13.9 64 64 NNW 8 13 29.90 1013 10 16 0.00 0.00
8:53 pm 20:53 Cloudy 68 20 56 13.3 65 65 NNW 7 11 29.91 1013 10 16 0.00 0.00
9:53 pm 21:53 Cloudy 67 19.4 58 14.4 73 73 N 5 7 29.92 1013 10 16 0.00 0.00
10:27 pm 22:27 Cloudy with Nearby Thunderstorms 67 19.4 58 14.4 73 73 VRB 6 9 29.91 1013 10 16 0.00 0.00
10:43 pm 22:43 Cloudy with Thunderstorms 66 18.9 58 14.4 75 75 W 10 17 29.94 1014 10 16 0.00 0.03
10:53 pm 22:53 Cloudy with Nearby Thunderstorms 64 17.8 59 15 84 84 W 9 15 29.95 1014 10 16 0.00 0.03
11:05 pm 23:05 Cloudy with Thunderstorms 63 17.2 59 15 87 87 W 7 11 29.94 1014 10 16 0.00 0.03
11:20 pm 23:20 Cloudy with Nearby Thunderstorms 63 17.2 59 15 87 87 WNW 7 11 29.91 1013 10 16 0.00 0.03
11:29 pm 23:29 Cloudy with Light Rain 63 17.2 59 15 87 87 WNW 8 13 29.91 1013 10 16 0.00 0.03
11:53 pm 23:53 Cloudy 62 16.7 59 15 90 90 W 3 6 29.94 1014 10 16 0.00 0.03

Powered by AerisWeather